Tracking 28790 objects as of 19-Apr-2024
HD Live streaming from Space Station
objects crossing your sky now

ONEWEB-0592

Track ONEWEB-0592 now!
10-day predictions
ONEWEB-0592 is classified as:


NORAD ID: 54658
Int'l Code: 2022-166S
Perigee: 1,183.3 km
Apogee: 1,186.5 km
Inclination: 87.9 °
Period: 108.9 minutes
Semi major axis: 7555 km
RCS: Unknown
Launch date: December 8, 2022
Source: United Kingdom (UK)
Launch site: AIR FORCE EASTERN TEST RANGE (AFETR)
Your satellite tracking list
Your tracking list is empty




NASA's NSSDC Master Catalog

Two Line Element Set (TLE):
1 54658U 22166S   24109.87388844  .00000029  00000-0  39447-4 0  9993
2 54658  87.9306  41.0583 0002127  72.6472 287.4895 13.21827423 67160
Source of the keplerian elements: AFSPC